Monroe, MI

2:30 PM EST on February 09, 2016 (GMT -0500)
Custer

Weather History for KTTF - May, 2012

Change the Weather History Date:

Friday, May 11, 2012

  Actual Average Record
Temperature  
Mean Temperature 58 °F -  
Max Temperature 73 °F 69 °F 88 °F (1987)
Min Temperature 44 °F 48 °F 31 °F (1934)
Degree Days  
Heating Degree Days 6    
Growing Degree Days 8 (Base 50)    
Moisture  
Dew Point 38 °F    
Average Humidity 48    
Maximum Humidity 87    
Minimum Humidity 25    
Precipitation  
Precipitation 0.00 in - - ()
Sea Level Pressure  
Sea Level Pressure 30.11 in    
Wind  
Wind Speed 3 mph (WSW)    
Max Wind Speed 14 mph    
Max Gust Speed 18 mph    
Visibility 10 miles    
Events      
Averages and records for this station are not official NWS values.
T = Trace of Precipitation, MM = Missing Value Source: NWS Daily Summary

Daily Weather History Graph

Daily Weather History Graph

Search for Another Location

Airport or City:

Trip Planner

Search our weather history database for the weather conditions in past years. The results will help you decide how hot, cold, wet, or windy it might be!

Date:

Astronomy

May. 11, 2012 Rise Set
Actual Time 6:17 AM EDT 8:43 PM EDT
Civil Twilight 5:45 AM EDT 9:15 PM EDT
Nautical Twilight 5:06 AM EDT 9:54 PM EDT
Astronomical Twilight 4:22 AM EDT 10:38 PM EDT
Moon 1:21 AM EDT (5/11) 11:49 AM EDT (5/11)
Length of Visible Light 15h 29m
Length of Day
14h 26m
Waning Gibbous, 63% of the Moon is Illuminated
May 11
Waning Gibbous
May 12
Last Quarter
May 20
New
May 28
First Quarter
Jun 4
Full

Hourly Weather History & Observations

Time (EDT) Temp. Windchill Dew Point Humidity Pressure Visibility Wind Dir Wind Speed Gust Speed Precip Events Conditions
12:15 AM 50.0 °F - 39.2 °F 66% 30.00 in 10.0 mi Calm Calm - N/A   Clear
12:36 AM 46.4 °F - 41.0 °F 81% 30.01 in 10.0 mi Calm Calm - N/A   Clear
12:56 AM 46.4 °F - 42.8 °F 87% 30.01 in 10.0 mi Calm Calm - N/A   Clear
1:16 AM 48.2 °F - 39.2 °F 71% 30.02 in 10.0 mi Calm Calm - N/A   Clear
1:36 AM 46.4 °F 44.3 °F 39.2 °F 76% 30.02 in 10.0 mi West 4.6 mph - N/A   Clear
1:56 AM 46.4 °F - 39.2 °F 76% 30.02 in 10.0 mi Calm Calm - N/A   Clear
2:11 AM 46.4 °F - 39.2 °F 76% 30.02 in 10.0 mi Calm Calm - N/A   Clear
2:31 AM 44.6 °F 43.1 °F 39.2 °F 81% 30.03 in 10.0 mi WSW 3.5 mph - N/A   Clear
2:51 AM 46.4 °F - 39.2 °F 76% 30.03 in 10.0 mi Calm Calm - N/A   Clear
3:11 AM 46.4 °F - 39.2 °F 76% 30.03 in 10.0 mi Calm Calm - N/A   Clear
3:52 AM 46.4 °F 44.3 °F 39.2 °F 76% 30.05 in 10.0 mi WNW 4.6 mph - N/A   Clear
4:12 AM 46.4 °F 45.2 °F 39.2 °F 76% 30.06 in 10.0 mi NW 3.5 mph - N/A   Clear
4:32 AM 46.4 °F 45.2 °F 37.4 °F 71% 30.06 in 10.0 mi WNW 3.5 mph - N/A   Clear
4:52 AM 46.4 °F - 37.4 °F 71% 30.07 in 10.0 mi Calm Calm - N/A   Clear
5:12 AM 46.4 °F - 37.4 °F 71% 30.07 in 10.0 mi Calm Calm - N/A   Clear
5:32 AM 46.4 °F - 37.4 °F 71% 30.08 in 10.0 mi Calm Calm - N/A   Clear
5:52 AM 44.6 °F - 37.4 °F 76% 30.09 in 10.0 mi Calm Calm - N/A   Clear
6:12 AM 44.6 °F - 37.4 °F 76% 30.09 in 10.0 mi Calm Calm - N/A   Clear
6:32 AM 44.6 °F - 37.4 °F 76% 30.10 in 10.0 mi Calm Calm - N/A   Clear
6:53 AM 46.4 °F - 37.4 °F 71% 30.11 in 10.0 mi Calm Calm - N/A   Clear
7:13 AM 46.4 °F - 39.2 °F 76% 30.11 in 10.0 mi Calm Calm - N/A   Clear
7:33 AM 48.2 °F - 39.2 °F 71% 30.12 in 10.0 mi Calm Calm - N/A   Clear
8:13 AM 51.8 °F - 39.2 °F 62% 30.13 in 10.0 mi Calm Calm - N/A   Clear
8:33 AM 53.6 °F - 37.4 °F 54% 30.14 in 10.0 mi Calm Calm - N/A   Clear
8:53 AM 55.4 °F - 39.2 °F 54% 30.14 in 10.0 mi West 3.5 mph - N/A   Clear
9:13 AM 57.2 °F - 39.2 °F 51% 30.14 in 10.0 mi West 3.5 mph - N/A   Clear
9:34 AM 60.8 °F - 39.2 °F 45% 30.15 in 10.0 mi Calm Calm - N/A   Clear
9:54 AM 60.8 °F - 39.2 °F 45% 30.15 in 10.0 mi West 4.6 mph - N/A   Clear
10:14 AM 64.4 °F - 41.0 °F 42% 30.15 in 10.0 mi West 5.8 mph - N/A   Clear
10:34 AM 64.4 °F - 39.2 °F 40% 30.15 in 10.0 mi West 4.6 mph - N/A   Clear
10:54 AM 66.2 °F - 35.6 °F 32% 30.15 in 10.0 mi West 8.1 mph - N/A   Clear
11:14 AM 66.2 °F - 35.6 °F 32% 30.15 in 10.0 mi West 8.1 mph - N/A   Clear
11:34 AM 68.0 °F - 37.4 °F 33% 30.14 in 10.0 mi WSW 5.8 mph - N/A   Clear
12:15 PM 69.8 °F - 35.6 °F 28% 30.14 in 10.0 mi West 5.8 mph - N/A   Clear
12:35 PM 69.8 °F - 35.6 °F 28% 30.13 in 10.0 mi NW 4.6 mph - N/A   Clear
12:55 PM 69.8 °F - 33.8 °F 27% 30.13 in 10.0 mi SW 8.1 mph - N/A   Clear
1:15 PM 69.8 °F - 35.6 °F 28% 30.14 in 10.0 mi SW 3.5 mph - N/A   Clear
1:35 PM 71.6 °F - 35.6 °F 27% 30.13 in 10.0 mi WSW 4.6 mph - N/A   Clear
1:55 PM 71.6 °F - 35.6 °F 27% 30.13 in 10.0 mi West 6.9 mph - N/A   Clear
2:15 PM 71.6 °F - 33.8 °F 25% 30.13 in 10.0 mi South 3.5 mph - N/A   Clear
2:53 PM 73.4 °F - 37.4 °F 27% 30.13 in 10.0 mi SW 8.1 mph - N/A   Clear
3:13 PM 73.4 °F - 37.4 °F 27% 30.13 in 10.0 mi WSW 6.9 mph 16.1 mph N/A   Clear
3:33 PM 73.4 °F - 37.4 °F 27% 30.12 in 10.0 mi WSW 4.6 mph - N/A   Clear
3:53 PM 73.4 °F - 37.4 °F 27% 30.13 in 10.0 mi WSW 12.7 mph - N/A   Clear
4:13 PM 73.4 °F - 35.6 °F 25% 30.12 in 10.0 mi SW 8.1 mph - N/A   Clear
4:33 PM 73.4 °F - 37.4 °F 27% 30.12 in 10.0 mi WSW 10.4 mph 16.1 mph N/A   Clear
4:53 PM 73.4 °F - 35.6 °F 25% 30.12 in 10.0 mi WSW 10.4 mph - N/A   Clear
5:14 PM 73.4 °F - 35.6 °F 25% 30.12 in 10.0 mi SW 11.5 mph 17.3 mph N/A   Clear
5:34 PM 73.4 °F - 35.6 °F 25% 30.12 in 10.0 mi SW 13.8 mph - N/A   Clear
5:54 PM 73.4 °F - 35.6 °F 25% 30.12 in 10.0 mi SW 10.4 mph - N/A   Clear
6:14 PM 73.4 °F - 35.6 °F 25% 30.12 in 10.0 mi SW 9.2 mph - N/A   Clear
6:34 PM 73.4 °F - 35.6 °F 25% 30.12 in 10.0 mi SW 11.5 mph 18.4 mph N/A   Clear
6:54 PM 73.4 °F - 35.6 °F 25% 30.12 in 10.0 mi SW 6.9 mph - N/A   Clear
7:34 PM 71.6 °F - 35.6 °F 27% 30.11 in 10.0 mi SSW 6.9 mph - N/A   Clear
7:54 PM 71.6 °F - 35.6 °F 27% 30.11 in 10.0 mi SSW 6.9 mph - N/A   Clear
8:15 PM 69.8 °F - 35.6 °F 28% 30.11 in 10.0 mi SSW 4.6 mph - N/A   Clear
8:35 PM 66.2 °F - 35.6 °F 32% 30.12 in 10.0 mi South 3.5 mph - N/A   Clear
8:55 PM 66.2 °F - 35.6 °F 32% 30.12 in 10.0 mi South 3.5 mph - N/A   Clear
9:15 PM 66.2 °F - 35.6 °F 32% 30.13 in 10.0 mi Calm Calm - N/A   Clear
9:35 PM 64.4 °F - 37.4 °F 37% 30.14 in 10.0 mi SSW 3.5 mph - N/A   Clear
9:55 PM 62.6 °F - 39.2 °F 42% 30.14 in 10.0 mi Calm Calm - N/A   Clear
10:15 PM 59.0 °F - 41.0 °F 51% 30.15 in 10.0 mi South 3.5 mph - N/A   Clear
10:35 PM 60.8 °F - 39.2 °F 45% 30.15 in 3.0 mi Calm Calm - N/A   Haze
10:55 PM 57.2 °F - 42.8 °F 59% 30.15 in 10.0 mi Calm Calm - N/A   Clear
11:16 PM 57.2 °F - 41.0 °F 55% 30.15 in 10.0 mi Calm Calm - N/A   Clear
11:36 PM 57.2 °F - 41.0 °F 55% 30.15 in 10.0 mi Calm Calm - N/A   Clear
11:56 PM 57.2 °F - 44.6 °F 63% 30.16 in 10.0 mi Calm Calm - N/A   Clear